Weather in Mamatsev

Russia / Republic of Adygea     44°56′36″N   39°59′28″E
temp.,
°C
wind,
m/s
gust,
m/s
humid.,
%
clouds,
%
prec.,
mm/h
press.,
hPa
HPBL,
m
15 may, sat
sat1500:00+16wsw478910 0.0 1011101
03:00+14wsw34883 0.0 101256
06:00+14wsw34820 0.0 101485
09:00+20wsw22675 0.0 1014348
12:00+23nw22625 0.0 1014600
15:00+25nnw225945 0.0 1013909
18:00+25ene12720 0.0 1013465
21:00+20ne34880 0.0 101246
16 may, sun
sun1600:00+18ene23942 0.0 101051
03:00+17ene119510 0.2 101111
06:00+18e23965 0.1 1010108
09:00+23e3583100 0.1 1009453
12:00+27ene5669100 0.0 10071053
15:00+27ene5766100 0.0 10051232
18:00+25ene497768 0.0 1003340
21:00+21e4990100 0.0 1003171
17 may, mon
mon1700:00+18ese34879 0.0 100250
03:00+17w239365 0.0 100345
06:00+18w311955 0.0 1004316
09:00+21wsw457686 0.0 1006524
12:00+23w5667100 0.3 1008851
15:00+18w2688100 2.6 1009152
18:00+20ne1287100 1.4 100980
21:00+17ssw4695100 5.7 1011153
18 may, tue
tue1800:00+15w3893100 4.4 1011214
03:00+14w3895100 4.6 1011248
06:00+14w2595100 0.0 1013180
09:00+18wsw4682100 0.0 1013612
12:00+21w366691 0.0 10131358
15:00+22wnw67622 0.1 10131368
18:00+20w4775100 0.0 1013353
21:00+15sw2281100 0.0 101511
19 may, wed
wed1900:00+14ssw12847 0.0 101411
03:00+13s228976 0.0 101411
06:00+15se128915 0.0 101548
09:00+20ese23745 0.0 1014469
12:00+24e446046 0.0 10131144
15:00+26ese12555 0.0 10121369
18:00+25nne126949 0.0 1011149
21:00+19nne348015 0.1 101256